www.pogodaiklimat.ru

Погода и климат >> Архив погоды >> Антарктида >> Marble Point


ПОГОДА в Marble Point

  • Прогноз погоды в Marble Point
  • Монитор погоды в Marble Point
  • Климат города

АРХИВ ПОГОДЫ в Marble Point

Время (UTC), дата Ветер
(напр.,м/с)
 
Видим.   Явления Облачность Т
(С)
Тd
(С)
f
(%)
Тe
(С)
Тes
(С)
Комфортность P
(гПа)
Po
(гПа)
Тmin
(С)
Tmax
(С)
R
(мм)
R24
(мм)
S
(см)
16 12.11 0 н/о н/о -6.4 958.2
17 12.11 0 н/о н/о -4.9 958.4
18 12.11 0 н/о н/о -3.8 958.5
20 12.11 0 н/о н/о -6.9 958.8
19 12.11 0 н/о н/о -8.1 958.6
21 12.11 0 н/о н/о -6.6 958.9
22 12.11 0 н/о н/о -7.0 959.2
23 12.11 0 н/о н/о -8.4 959.4
00 13.11 0 н/о н/о -8.5 959.5
02 13.11 0 н/о н/о -6.8 960.2
01 13.11 0 н/о н/о -7.0 959.9
03 13.11 0 н/о н/о -6.6 960.5
04 13.11 0 н/о н/о -6.3 960.7
05 13.11 0 н/о н/о -5.9 961.2
06 13.11 0 н/о н/о -6.5 961.6
08 13.11 0 н/о н/о -6.5 962.2
07 13.11 0 н/о н/о -6.4 962.0
09 13.11 0 н/о н/о -6.4 962.7
10 13.11 0 н/о н/о -6.3 962.7
11 13.11 0 н/о н/о -7.0 962.6
12 13.11 0 н/о н/о -7.0 962.8
14 13.11 0 н/о н/о -7.3 962.8
13 13.11 0 н/о н/о -7.8 962.8
15 13.11 0 н/о н/о -8.9 963.1
16 13.11 0 н/о н/о -8.9 963.2
17 13.11 0 н/о н/о -8.5 963.5
18 13.11 0 н/о н/о -8.9 963.6
20 13.11 0 н/о н/о -9.5 964.2
19 13.11 0 н/о н/о -9.4 963.8
21 13.11 0 н/о н/о -8.4 964.8
22 13.11 0 н/о н/о -8.1 965.0
23 13.11 0 н/о н/о -7.9 965.1
00 14.11 0 н/о н/о -8.1 965.4
02 14.11 0 н/о н/о -6.5 965.8
01 14.11 0 н/о н/о -7.9 965.6
03 14.11 0 н/о н/о -7.0 966.0
04 14.11 0 н/о н/о -6.8 966.1
05 14.11 0 н/о н/о -6.8 966.0
06 14.11 0 н/о н/о -7.1 965.9
08 14.11 0 н/о н/о -8.1 965.9
07 14.11 0 н/о н/о -7.5 965.9
09 14.11 0 н/о н/о -8.1 966.0
10 14.11 0 н/о н/о -7.9 966.0
11 14.11 0 н/о н/о -8.1 966.1
12 14.11 0 н/о н/о -8.1 966.0
14 14.11 0 н/о н/о -9.8 965.9
13 14.11 0 н/о н/о -8.5 966.0
15 14.11 0 н/о н/о -9.8 966.0
16 14.11 0 н/о н/о -8.8 965.9
17 14.11 0 н/о н/о -8.8 965.9
18 14.11 0 н/о н/о -8.5 966.0
20 14.11 0 н/о н/о -8.5 966.0
19 14.11 0 н/о н/о -8.3 966.0
21 14.11 0 н/о н/о -7.9 966.2
22 14.11 0 н/о н/о -7.9 966.3
23 14.11 0 н/о н/о -7.9 966.4
00 15.11 0 н/о н/о -7.1 966.5
02 15.11 0 н/о н/о -7.0 966.5
01 15.11 0 н/о н/о -7.0 966.4
03 15.11 0 н/о н/о -6.6 966.4
04 15.11 0 н/о н/о -7.5 966.4
05 15.11 0 н/о н/о -7.6 966.2
06 15.11 0 н/о н/о -7.6 966.2
08 15.11 0 н/о н/о -8.5 966.2
07 15.11 0 н/о н/о -8.4 966.2
09 15.11 0 н/о н/о -8.9 966.3
10 15.11 0 н/о н/о -9.4 966.3
11 15.11 0 н/о н/о -9.5 966.2
12 15.11 0 н/о н/о -10.1 966.1
14 15.11 0 н/о н/о -11.0 966.1
13 15.11 0 н/о н/о -10.6 966.1
15 15.11 0 н/о н/о -10.6 966.1
16 15.11 0 н/о н/о -11.4 966.2
17 15.11 0 н/о н/о -7.9 966.6
18 15.11 0 н/о н/о -8.9 966.8
20 15.11 0 н/о н/о -4.8 967.4
19 15.11 0 н/о н/о -6.3 967.1
21 15.11 0 н/о н/о -6.5 967.7
22 15.11 0 н/о н/о -5.8 968.0
23 15.11 0 н/о н/о -7.3 968.1
00 16.11 0 н/о н/о -7.3 968.3
02 16.11 0 н/о н/о -5.9 968.6
01 16.11 0 н/о н/о -5.5 968.6
03 16.11 0 н/о н/о -5.3 968.5
04 16.11 0 н/о н/о -5.8 968.6
05 16.11 0 н/о н/о -6.6 968.4
06 16.11 0 н/о н/о -8.1 968.3
08 16.11 0 н/о н/о -6.8 968.1
07 16.11 0 н/о н/о -7.8 968.1
09 16.11 0 н/о н/о -6.6 968.8
10 16.11 0 н/о н/о -7.9 968.4
11 16.11 0 н/о н/о -9.5 968.5
12 16.11 0 н/о н/о -10.0 968.1
14 16.11 0 н/о н/о -9.3 968.1
13 16.11 0 н/о н/о -10.0 968.1
15 16.11 0 н/о н/о -9.8 968.0
16 16.11 0 н/о н/о -9.0 968.2
17 16.11 0 н/о н/о -6.1 968.5
18 16.11 0 н/о н/о -6.6 969.2
20 16.11 0 н/о н/о -6.5 969.7
19 16.11 0 н/о н/о -7.0 969.2
21 16.11 0 н/о н/о -6.6 970.0
22 16.11 0 н/о н/о -6.4 970.4
23 16.11 0 н/о н/о -9.3 970.9
00 17.11 0 н/о н/о -9.3 971.0
02 17.11 0 н/о н/о -7.8 971.4
01 17.11 0 н/о н/о -8.9 971.2
03 17.11 0 н/о н/о -7.6 971.7
04 17.11 0 н/о н/о -7.3 972.1
05 17.11 0 н/о н/о -6.6 972.7
06 17.11 0 н/о н/о -6.4 972.9
08 17.11 0 н/о н/о -7.1 973.9
07 17.11 0 н/о н/о -7.6 973.6
09 17.11 0 н/о н/о -7.9 974.2
10 17.11 0 н/о н/о -8.8 974.7
11 17.11 0 н/о н/о -8.8 974.9
12 17.11 0 н/о н/о -9.4 974.6
14 17.11 0 н/о н/о -9.5 974.8
13 17.11 0 н/о н/о -10.0 974.7
15 17.11 0 н/о н/о -8.4 975.0
16 17.11 З 3 н/о н/о -8.9 -13 -13 987.5 973.9
17 17.11 0 н/о н/о -8.9 975.3
18 17.11 0 н/о н/о -8.4 975.5
20 17.11 0 н/о н/о -7.1 976.2
19 17.11 0 н/о н/о -7.0 975.7
21 17.11 0 н/о н/о -7.1 976.5
22 17.11 0 н/о н/о -7.5 976.6
23 17.11 0 н/о н/о -8.4 976.9
00 18.11 0 н/о н/о -8.1 977.1
02 18.11 0 н/о н/о -7.5 978.0
01 18.11 0 н/о н/о -8.1 977.8
03 18.11 0 н/о н/о -8.1 978.1
04 18.11 0 н/о н/о -7.5 978.1
05 18.11 0 н/о н/о -7.8 978.4
06 18.11 0 н/о н/о -9.9 978.7
08 18.11 0 н/о н/о -9.0 978.6
07 18.11 0 н/о н/о -10.1 978.4
09 18.11 0 н/о н/о -9.4 978.5
10 18.11 0 н/о н/о -9.4 978.1
11 18.11 0 н/о н/о -9.5 977.8
12 18.11 0 н/о н/о -9.4 977.8
14 18.11 0 н/о н/о -9.8 976.8
13 18.11 0 н/о н/о -8.4 977.2
15 18.11 0 н/о н/о -8.4 976.2
16 18.11 0 н/о н/о -10.3 976.4
17 18.11 0 н/о н/о -11.3 976.4
18 18.11 0 н/о н/о -9.3 975.8
20 18.11 0 н/о н/о -8.5 975.0
19 18.11 0 н/о н/о -9.3 975.4
21 18.11 0 н/о н/о -7.9 974.9
22 18.11 0 н/о н/о -7.5 974.6
23 18.11 0 н/о 974.3
00 19.11 0 н/о н/о -7.5 973.9
02 19.11 0 н/о н/о -4.1 973.0
01 19.11 0 н/о н/о -5.5 973.5
03 19.11 0 н/о н/о -4.9 972.4
04 19.11 0 н/о н/о -4.6 971.8
05 19.11 0 н/о н/о -4.0 971.3
06 19.11 0 н/о н/о -6.4 970.7
08 19.11 0 н/о н/о -5.7 968.5
07 19.11 0 н/о н/о -6.8 969.5
09 19.11 0 н/о н/о -6.1 968.3
10 19.11 0 н/о н/о -6.1 967.5
11 19.11 0 н/о н/о -8.9 966.8
12 19.11 0 н/о н/о -9.0 965.2
14 19.11 0 н/о н/о -10.3 963.0
13 19.11 0 н/о н/о -9.0 964.3
15 19.11 0 н/о н/о -9.5 962.3
16 19.11 0 н/о н/о -7.5 961.6

 

Местоположение метеостанции Marble Point (Антарктида): широта -77.43 долгота 163.75 высота над уровнем моря 108 м.

В архиве по умолчанию представлена погода в Marble Point за последнюю неделю. Архивные данные за месяц целиком и за предыдущие месяцы, начиная с января 2011 года, Вы можете получить, выбрав интересующий диапазон дат из раскрывающегося списка и нажав кнопку "Ввод!".


*Определитесь, кто Вы:
робот инопланетянин человек

Внимание! Время в таблицах - всемирное. Для получения местного времени необходимо прибавить поправку, которая в Marble Point равна 0 ч.

Смотрите также архив погоды в соседних городах и на ближайших метеорологических станциях:

Погода в Cape Ross (Антарктида) (82 км)
Погода в McMurdo (Антарктида) (84 км)
Погода в Pegasus North (Антарктида) (87 км)
Погода в Minna Bluff (Антарктида) (142 км)
Погода в Linda (Антарктида) (156 км)
Погода в Ferrell (Антарктида) (175 км)
Погода в Manuela (Антарктида) (277 км)
Погода в Marilyn (Антарктида) (282 км)
Погода в Baia Terra Nova (Антарктида) (304 км)
Погода в Schwerdtfeger (Антарктида) (305 км)

Пояснения к столбцам:

Ветер - указаны скорость ветра в м/с - средняя за 10 мин, порывы в срок и между сроками (в фигурных скобках) и направление, откуда дует ветер: С - северный, СВ - северо-восточный, В - восточный, ЮВ - юго-восточный, Ю - южный, ЮЗ - юго-западный, З - западный, СЗ - северо-западный.
Видимость - горизонтальная дальность видимости в метрах или километрах. При видимости от 1 до 10 км при отсутствии осадков обычно наблюдается дымка, при ухудшении видимости до 1 км и менее - туман. В сухую погоду видимость может ухудшаться дымом, пылью или мглою.
Явления - указаны атмосферные явления, наблюдавшиеся в срок или в последний час перед сроком; фигурными скобками обозначены явления, наблюдавшиеся между сроками (за 1-3 часа до срока); квадратными скобками обозначены град или гололедные отложения с указанием их диаметра в мм.
Облачность - указаны через наклонную черту общая и нижняя облачность в баллах и высота нижней границы облаков в метрах; квадратными скобками обозначены формы облаков: Ci - перистые, Cs - перисто-слоистые, Cc - перисто-кучевые, Ac - высококучевые, As - высокослоистые, Sc - слоисто-кучевые, Ns - слоисто-дождевые, Cu - кучевые, Cb - кучево-дождевые. Подробнее классификацию облаков см. в Атласе облаков (PDF).
T - Температура воздуха - температура, измеренная на высоте 2 м над землей.
Td - Температура точки росы - температура, при понижении до которой содержащийся в воздухе водяной пар достигнет насыщения.
f - Относительная влажность воздуха - влажноcть воздуха, измеренная на высоте 2 м над землей.
Te - Эффективная температура - температура, которую ощущает одетый по сезону человек в тени. Характеристика душности погоды. При расчете учитывается влияние влажности воздуха и скорости ветра на теплоощущения человека.
Tes - Эффективная температура на солнце - температура, которую ощущает человек, с поправкой на солнечный нагрев. Характеристика знойности погоды. Зависит от высоты солнца над горизонтом, облачности и скорости ветра. Ночью, в пасмурную погоду, а также при ветре 12 м/с и более поправка равна нулю.
P - Атмосферное давление - приведенное к уровню моря атмосферное давление.
Po - Атмосферное давление - измеренное на уровне метеостанции атмосферное давление.
Tmin - Минимальная температура - минимум температуры воздуха на высоте 2 м над землей.
Tmax - Максимальная температура - максимум температуры воздуха на высоте 2 м над землей.
R - Количество осадков - Количество выпавших осадков за период времени, мм. При наведении курсора мыши на число - период времени, за который выпало указанное количество осадков.
R24 - Количество осадков - Количество выпавших осадков за 24 часа, мм.
S - Снежный покров - Высота снежного покрова, см. При наведении курсора мыши на число - состояние снежного покрова и степень покрытия местности в баллах.